USA 271

Last updated on Jan. 6, 2020, 4:31 a.m. UTC

1 41745U 16052B   20005.69456395 -.00000302  00000-0  00000+0 0  9994
2 41745   0.1594  98.1133 0000581 293.5458  97.7712  1.00224983  4339
UTC
Height (km)
Latitude
Longitude
Inclination
Orbital Period
UTC large
Height (km)
Speed (km/s)
/
Latitude / Longitude
Inclination (degrees)
Orbital Period (minutes)
Azimuth
Elevation
Range (km)
Doppler Factor
iOS Compass Heading
iOS Angle

Next 30 passes for location: Hong Kong

Rise time Rise Azimuth (degrees) Set time Set Azimuth (degrees) Duration Max altitude (degrees)

No matching passes for this satellites